TimeEDT,TemperatureF,Dew PointF,Humidity,Sea Level PressureIn,VisibilityMPH,Wind Direction,Wind SpeedMPH,Gust SpeedMPH,PrecipitationIn,Events,Conditions,WindDirDegrees,DateUTC
12:56 AM,73.0,69.1,87,30.17,10.0,SSE,3.5,-,N/A,,Clear,160,2013-05-19 04:56:00
1:56 AM,73.0,69.1,87,30.15,10.0,Calm,Calm,-,N/A,,Clear,0,2013-05-19 05:56:00
2:33 AM,73.4,69.8,88,30.15,10.0,SSE,3.5,-,N/A,,Mostly Cloudy,150,2013-05-19 06:33:00
2:56 AM,73.0,69.1,87,30.16,10.0,SE,3.5,-,N/A,,Scattered Clouds,130,2013-05-19 06:56:00
3:56 AM,71.1,68.0,90,30.15,10.0,SSE,3.5,-,N/A,,Clear,160,2013-05-19 07:56:00
4:56 AM,71.1,66.9,87,30.15,10.0,SE,5.8,-,N/A,,Partly Cloudy,130,2013-05-19 08:56:00
5:56 AM,70.0,66.9,90,30.16,10.0,SSE,4.6,-,N/A,,Partly Cloudy,150,2013-05-19 09:56:00
6:56 AM,72.0,68.0,87,30.18,10.0,South,4.6,-,N/A,,Scattered Clouds,170,2013-05-19 10:56:00
7:56 AM,73.9,66.9,79,30.19,10.0,SSE,4.6,-,N/A,,Clear,160,2013-05-19 11:56:00
8:56 AM,75.0,68.0,79,30.20,10.0,SSE,8.1,-,N/A,,Scattered Clouds,160,2013-05-19 12:56:00
9:56 AM,78.1,66.9,68,30.20,10.0,SSE,13.8,20.7,N/A,,Scattered Clouds,150,2013-05-19 13:56:00
10:56 AM,78.1,66.9,68,30.21,10.0,SSW,9.2,-,0.00,,Scattered Clouds,210,2013-05-19 14:56:00
11:56 AM,80.1,66.0,62,30.19,10.0,SSW,10.4,-,N/A,,Clear,210,2013-05-19 15:56:00
12:56 PM,80.1,66.0,62,30.18,10.0,South,9.2,-,N/A,,Scattered Clouds,180,2013-05-19 16:56:00
1:56 PM,80.1,66.0,62,30.17,10.0,South,10.4,23.0,0.01,,Mostly Cloudy,170,2013-05-19 17:56:00
2:56 PM,82.0,66.0,58,30.15,10.0,South,13.8,17.3,N/A,,Partly Cloudy,170,2013-05-19 18:56:00
3:56 PM,82.9,66.0,56,30.14,10.0,South,9.2,-,N/A,,Partly Cloudy,180,2013-05-19 19:56:00
4:56 PM,81.0,64.0,56,30.14,10.0,South,11.5,17.3,N/A,,Clear,170,2013-05-19 20:56:00
5:56 PM,80.1,64.9,60,30.14,10.0,SSE,12.7,-,N/A,,Partly Cloudy,160,2013-05-19 21:56:00
6:56 PM,78.1,66.0,66,30.14,10.0,SSE,10.4,-,N/A,,Clear,160,2013-05-19 22:56:00
7:56 PM,75.9,66.9,74,30.15,10.0,South,6.9,-,N/A,,Partly Cloudy,170,2013-05-19 23:56:00
8:56 PM,75.0,68.0,79,30.17,10.0,South,10.4,-,N/A,,Mostly Cloudy,170,2013-05-20 00:56:00
9:56 PM,73.9,68.0,82,30.18,10.0,South,6.9,-,N/A,,Mostly Cloudy,170,2013-05-20 01:56:00
10:56 PM,73.0,66.9,81,30.18,10.0,South,6.9,-,N/A,,Clear,180,2013-05-20 02:56:00
11:56 PM,73.0,66.9,81,30.18,10.0,South,8.1,-,N/A,,Mostly Cloudy,190,2013-05-20 03:56:00